owner,sensor,date,latitude,longitude,vertical_datum,sea_water_temperature,qcFlag
Shell,ioos:station:wmo:42902:2,2021-08-04T15:21:00Z,28.5991,-88.0190,11.0,29.2,11111222
Shell,ioos:station:wmo:42902:2,2021-08-04T15:31:00Z,28.5991,-88.0190,11.0,29.3,11111222
Shell,ioos:station:wmo:42902:2,2021-08-04T15:41:00Z,28.5991,-88.0190,11.0,29.4,11111222
Shell,ioos:station:wmo:42902:2,2021-08-04T15:51:00Z,28.5991,-88.0190,11.0,29.4,11111222
Shell,ioos:station:wmo:42902:2,2021-08-04T16:01:00Z,28.5991,-88.0190,11.0,29.4,11111222
Shell,ioos:station:wmo:42902:2,2021-08-04T16:11:00Z,28.5991,-88.0190,11.0,29.4,11111222
Shell,ioos:station:wmo:42902:2,2021-08-04T16:21:00Z,28.5991,-88.0190,11.0,29.4,11111222
Shell,ioos:station:wmo:42902:2,2021-08-04T16:31:00Z,28.5991,-88.0190,11.0,29.4,11111222
Shell,ioos:station:wmo:42902:2,2021-08-04T16:41:00Z,28.5991,-88.0190,11.0,29.4,11111222
Shell,ioos:station:wmo:42902:2,2021-08-04T16:51:00Z,28.5991,-88.0190,11.0,29.4,11111222
Shell,ioos:station:wmo:42902:2,2021-08-04T17:01:00Z,28.5991,-88.0190,11.0,29.4,11111222
Shell,ioos:station:wmo:42902:2,2021-08-04T17:11:00Z,28.5991,-88.0190,11.0,29.4,11111222
Shell,ioos:station:wmo:42902:2,2021-08-04T17:21:00Z,28.5991,-88.0190,11.0,29.3,11111222
Shell,ioos:station:wmo:42902:2,2021-08-04T17:31:00Z,28.5991,-88.0190,11.0,29.2,11111222
Shell,ioos:station:wmo:42902:2,2021-08-04T17:41:00Z,28.5991,-88.0190,11.0,29.1,11111222
Shell,ioos:station:wmo:42902:2,2021-08-04T17:51:00Z,28.5991,-88.0190,11.0,28.9,11111222
Shell,ioos:station:wmo:42902:2,2021-08-04T18:01:00Z,28.5991,-88.0190,11.0,28.8,11111222
Shell,ioos:station:wmo:42902:2,2021-08-04T18:11:00Z,28.5991,-88.0190,11.0,28.9,11111222
Shell,ioos:station:wmo:42902:2,2021-08-04T18:21:00Z,28.5991,-88.0190,11.0,28.6,11111222
Shell,ioos:station:wmo:42902:2,2021-08-04T18:31:00Z,28.5991,-88.0190,11.0,28.5,11111222
Shell,ioos:station:wmo:42902:2,2021-08-04T18:41:00Z,28.5991,-88.0190,11.0,28.5,11111222
Shell,ioos:station:wmo:42902:2,2021-08-04T18:51:00Z,28.5990,-88.0191,11.0,28.6,11111222
Shell,ioos:station:wmo:42902:2,2021-08-04T19:01:00Z,28.5990,-88.0191,11.0,29.1,11111222
Shell,ioos:station:wmo:42902:2,2021-08-04T19:11:00Z,28.5990,-88.0191,11.0,29.2,11111222
Shell,ioos:station:wmo:42902:2,2021-08-04T19:21:00Z,28.5990,-88.0191,11.0,29.2,11111222
Shell,ioos:station:wmo:42902:2,2021-08-04T19:31:00Z,28.5990,-88.0191,11.0,29.1,11111222
Shell,ioos:station:wmo:42902:2,2021-08-04T19:41:00Z,28.5990,-88.0191,11.0,29.1,11111222
Shell,ioos:station:wmo:42902:2,2021-08-04T19:51:00Z,28.5990,-88.0191,11.0,29.3,11111222
Shell,ioos:station:wmo:42902:2,2021-08-04T20:01:00Z,28.5990,-88.0191,11.0,29.1,11111222
Shell,ioos:station:wmo:42902:2,2021-08-04T20:11:00Z,28.5990,-88.0191,11.0,29.1,11111222
Shell,ioos:station:wmo:42902:2,2021-08-04T20:21:00Z,28.5990,-88.0191,11.0,28.8,11111222
Shell,ioos:station:wmo:42902:2,2021-08-04T20:31:00Z,28.5990,-88.0191,11.0,28.6,11111222
Shell,ioos:station:wmo:42902:2,2021-08-04T20:41:00Z,28.5990,-88.0191,11.0,29.1,11111222
Shell,ioos:station:wmo:42902:2,2021-08-04T20:51:00Z,28.5990,-88.0191,11.0,29.2,11111222
Shell,ioos:station:wmo:42902:2,2021-08-04T21:01:00Z,28.5990,-88.0191,11.0,29.2,11111222
Shell,ioos:station:wmo:42902:2,2021-08-04T21:11:00Z,28.5990,-88.0191,11.0,29.3,11111222
Shell,ioos:station:wmo:42902:2,2021-08-04T21:21:00Z,28.5990,-88.0191,11.0,29.4,11111222
Shell,ioos:station:wmo:42902:2,2021-08-04T21:31:00Z,28.5990,-88.0191,11.0,29.3,11111222
Shell,ioos:station:wmo:42902:2,2021-08-04T21:41:00Z,28.5990,-88.0191,11.0,29.3,11111222
Shell,ioos:station:wmo:42902:2,2021-08-04T21:51:00Z,28.5990,-88.0191,11.0,29.2,11111222
Shell,ioos:station:wmo:42902:2,2021-08-04T22:01:00Z,28.5990,-88.0191,11.0,29.1,11111222
Shell,ioos:station:wmo:42902:2,2021-08-04T22:11:00Z,28.5990,-88.0191,11.0,29.0,11111222
Shell,ioos:station:wmo:42902:2,2021-08-04T22:21:00Z,28.5990,-88.0191,11.0,29.0,11111222
Shell,ioos:station:wmo:42902:2,2021-08-04T22:31:00Z,28.5990,-88.0191,11.0,29.1,11111222
Shell,ioos:station:wmo:42902:2,2021-08-04T22:41:00Z,28.5990,-88.0191,11.0,29.1,11111222
Shell,ioos:station:wmo:42902:2,2021-08-04T22:51:00Z,28.5990,-88.0191,11.0,29.2,11111222
Shell,ioos:station:wmo:42902:2,2021-08-04T23:01:00Z,28.5990,-88.0191,11.0,29.1,11111222
Shell,ioos:station:wmo:42902:2,2021-08-04T23:11:00Z,28.5990,-88.0191,11.0,29.4,11111222
Shell,ioos:station:wmo:42902:2,2021-08-04T23:21:00Z,28.5990,-88.0191,11.0,29.3,11111222
Shell,ioos:station:wmo:42902:2,2021-08-04T23:31:00Z,28.5990,-88.0191,11.0,29.2,11111222
Shell,ioos:station:wmo:42902:2,2021-08-04T23:41:00Z,28.5989,-88.0191,11.0,29.2,11111222
Shell,ioos:station:wmo:42902:2,2021-08-04T23:51:00Z,28.5990,-88.0191,11.0,29.4,11111222
Shell,ioos:station:wmo:42902:2,2021-08-05T00:01:00Z,28.5990,-88.0191,11.0,29.4,11111222
Shell,ioos:station:wmo:42902:2,2021-08-05T00:11:00Z,28.5990,-88.0191,11.0,29.4,11111222
Shell,ioos:station:wmo:42902:2,2021-08-05T00:21:00Z,28.5990,-88.0191,11.0,29.4,11111222
Shell,ioos:station:wmo:42902:2,2021-08-05T00:31:00Z,28.5990,-88.0191,11.0,29.5,11111222
Shell,ioos:station:wmo:42902:2,2021-08-05T00:41:00Z,28.5990,-88.0191,11.0,29.5,11111222
Shell,ioos:station:wmo:42902:2,2021-08-05T00:51:00Z,28.5990,-88.0191,11.0,29.5,11111222
Shell,ioos:station:wmo:42902:2,2021-08-05T01:01:00Z,28.5990,-88.0191,11.0,29.5,11111222
Shell,ioos:station:wmo:42902:2,2021-08-05T01:11:00Z,28.5990,-88.0191,11.0,29.4,11111222
Shell,ioos:station:wmo:42902:2,2021-08-05T01:21:00Z,28.5990,-88.0191,11.0,29.4,11111222
Shell,ioos:station:wmo:42902:2,2021-08-05T01:31:00Z,28.5990,-88.0191,11.0,29.3,11111222
Shell,ioos:station:wmo:42902:2,2021-08-05T01:41:00Z,28.5992,-88.0190,11.0,29.3,11111222
Shell,ioos:station:wmo:42902:2,2021-08-05T01:51:00Z,28.5993,-88.0189,11.0,29.4,11111222
Shell,ioos:station:wmo:42902:2,2021-08-05T02:01:00Z,28.5994,-88.0189,11.0,29.3,11111222
Shell,ioos:station:wmo:42902:2,2021-08-05T02:11:00Z,28.5994,-88.0189,11.0,29.3,11111222
Shell,ioos:station:wmo:42902:2,2021-08-05T02:21:00Z,28.5994,-88.0189,11.0,29.2,11111222
Shell,ioos:station:wmo:42902:2,2021-08-05T02:31:00Z,28.5994,-88.0189,11.0,29.1,11111222
Shell,ioos:station:wmo:42902:2,2021-08-05T02:41:00Z,28.5994,-88.0189,11.0,29.1,11111222
Shell,ioos:station:wmo:42902:2,2021-08-05T02:51:00Z,28.5994,-88.0189,11.0,29.1,11111222
Shell,ioos:station:wmo:42902:2,2021-08-05T03:01:00Z,28.5994,-88.0188,11.0,29.0,11111222
Shell,ioos:station:wmo:42902:2,2021-08-05T03:11:00Z,28.5995,-88.0187,11.0,29.0,11111222
Shell,ioos:station:wmo:42902:2,2021-08-05T03:21:00Z,28.5995,-88.0187,11.0,29.0,11111222
Shell,ioos:station:wmo:42902:2,2021-08-05T03:31:00Z,28.5995,-88.0187,11.0,28.9,11111222
Shell,ioos:station:wmo:42902:2,2021-08-05T03:41:00Z,28.5995,-88.0188,11.0,29.0,11111222
Shell,ioos:station:wmo:42902:2,2021-08-05T03:51:00Z,28.5995,-88.0188,11.0,29.2,11111222
Shell,ioos:station:wmo:42902:2,2021-08-05T04:01:00Z,28.5995,-88.0187,11.0,29.3,11111222
Shell,ioos:station:wmo:42902:2,2021-08-05T04:11:00Z,28.5995,-88.0187,11.0,29.5,11111222
Shell,ioos:station:wmo:42902:2,2021-08-05T04:21:00Z,28.5995,-88.0187,11.0,29.4,11111222
Shell,ioos:station:wmo:42902:2,2021-08-05T04:31:00Z,28.5995,-88.0187,11.0,29.3,11111222
Shell,ioos:station:wmo:42902:2,2021-08-05T04:41:00Z,28.5995,-88.0187,11.0,29.1,11111222
Shell,ioos:station:wmo:42902:2,2021-08-05T04:51:00Z,28.5995,-88.0187,11.0,29.1,11111222
Shell,ioos:station:wmo:42902:2,2021-08-05T05:01:00Z,28.5995,-88.0187,11.0,29.2,11111222
Shell,ioos:station:wmo:42902:2,2021-08-05T05:11:00Z,28.5995,-88.0187,11.0,29.1,11111222
Shell,ioos:station:wmo:42902:2,2021-08-05T05:21:00Z,28.5995,-88.0188,11.0,29.2,11111222
Shell,ioos:station:wmo:42902:2,2021-08-05T05:31:00Z,28.5995,-88.0188,11.0,29.2,11111222
Shell,ioos:station:wmo:42902:2,2021-08-05T05:41:00Z,28.5995,-88.0188,11.0,29.2,11111222
Shell,ioos:station:wmo:42902:2,2021-08-05T05:51:00Z,28.5995,-88.0188,11.0,29.2,11111222
Shell,ioos:station:wmo:42902:2,2021-08-05T06:01:00Z,28.5995,-88.0188,11.0,29.3,11111222
Shell,ioos:station:wmo:42902:2,2021-08-05T06:11:00Z,28.5995,-88.0187,11.0,29.3,11111222
Shell,ioos:station:wmo:42902:2,2021-08-05T06:21:00Z,28.5995,-88.0187,11.0,29.3,11111222
Shell,ioos:station:wmo:42902:2,2021-08-05T06:31:00Z,28.5995,-88.0187,11.0,29.3,11111222
Shell,ioos:station:wmo:42902:2,2021-08-05T06:41:00Z,28.5995,-88.0187,11.0,29.3,11111222
Shell,ioos:station:wmo:42902:2,2021-08-05T06:51:00Z,28.5995,-88.0188,11.0,29.3,11111222
Shell,ioos:station:wmo:42902:2,2021-08-05T07:01:00Z,28.5995,-88.0188,11.0,29.3,11111222
Shell,ioos:station:wmo:42902:2,2021-08-05T07:11:00Z,28.5995,-88.0188,11.0,29.2,11111222
Shell,ioos:station:wmo:42902:2,2021-08-05T07:21:00Z,28.5995,-88.0188,11.0,29.3,11111222
Shell,ioos:station:wmo:42902:2,2021-08-05T07:31:00Z,28.5995,-88.0187,11.0,29.4,11111222
Shell,ioos:station:wmo:42902:2,2021-08-05T07:41:00Z,28.5996,-88.0187,11.0,29.3,11111222
Shell,ioos:station:wmo:42902:2,2021-08-05T07:51:00Z,28.5995,-88.0187,11.0,29.3,11111222
Shell,ioos:station:wmo:42902:2,2021-08-05T08:01:00Z,28.5995,-88.0188,11.0,29.4,11111222
Shell,ioos:station:wmo:42902:2,2021-08-05T08:11:00Z,28.5995,-88.0188,11.0,29.4,11111222
Shell,ioos:station:wmo:42902:2,2021-08-05T08:21:00Z,28.5995,-88.0188,11.0,29.3,11111222
Shell,ioos:station:wmo:42902:2,2021-08-05T08:31:00Z,28.5995,-88.0188,11.0,29.3,11111222
Shell,ioos:station:wmo:42902:2,2021-08-05T08:41:00Z,28.5994,-88.0189,11.0,29.4,11111222
Shell,ioos:station:wmo:42902:2,2021-08-05T08:51:00Z,28.5993,-88.0190,11.0,29.4,11111222
Shell,ioos:station:wmo:42902:2,2021-08-05T09:01:00Z,28.5993,-88.0190,11.0,29.4,11111222
Shell,ioos:station:wmo:42902:2,2021-08-05T09:11:00Z,28.5991,-88.0190,11.0,29.4,11111222
Shell,ioos:station:wmo:42902:2,2021-08-05T09:21:00Z,28.5991,-88.0190,11.0,29.4,11111222
Shell,ioos:station:wmo:42902:2,2021-08-05T09:31:00Z,28.5991,-88.0190,11.0,29.4,11111222
Shell,ioos:station:wmo:42902:2,2021-08-05T09:41:00Z,28.5991,-88.0190,11.0,29.4,11111222
Shell,ioos:station:wmo:42902:2,2021-08-05T09:51:00Z,28.5991,-88.0190,11.0,29.4,11111222
Shell,ioos:station:wmo:42902:2,2021-08-05T10:01:00Z,28.5991,-88.0190,11.0,29.4,11111222
Shell,ioos:station:wmo:42902:2,2021-08-05T10:11:00Z,28.5991,-88.0190,11.0,29.4,11111222
Shell,ioos:station:wmo:42902:2,2021-08-05T10:21:00Z,28.5991,-88.0190,11.0,29.4,11111222
Shell,ioos:station:wmo:42902:2,2021-08-05T10:31:00Z,28.5991,-88.0190,11.0,29.4,11111222
Shell,ioos:station:wmo:42902:2,2021-08-05T10:41:00Z,28.5991,-88.0190,11.0,29.4,11111222
Shell,ioos:station:wmo:42902:2,2021-08-05T10:51:00Z,28.5991,-88.0190,11.0,29.4,11111222
Shell,ioos:station:wmo:42902:2,2021-08-05T11:01:00Z,28.5991,-88.0190,11.0,29.4,11111222
Shell,ioos:station:wmo:42902:2,2021-08-05T11:11:00Z,28.5991,-88.0190,11.0,29.4,11111222
Shell,ioos:station:wmo:42902:2,2021-08-05T11:21:00Z,28.5991,-88.0190,11.0,29.4,11111222
Shell,ioos:station:wmo:42902:2,2021-08-05T11:31:00Z,28.5991,-88.0190,11.0,29.5,11111222
Shell,ioos:station:wmo:42902:2,2021-08-05T11:41:00Z,28.5991,-88.0190,11.0,29.5,11111222
Shell,ioos:station:wmo:42902:2,2021-08-05T11:51:00Z,28.5991,-88.0190,11.0,29.4,11111222
Shell,ioos:station:wmo:42902:2,2021-08-05T12:01:00Z,28.5991,-88.0190,11.0,29.5,11111222
Shell,ioos:station:wmo:42902:2,2021-08-05T12:11:00Z,28.5991,-88.0190,11.0,29.6,11111222
Shell,ioos:station:wmo:42902:2,2021-08-05T12:21:00Z,28.5991,-88.0190,11.0,29.6,11111222
Shell,ioos:station:wmo:42902:2,2021-08-05T12:31:00Z,28.5991,-88.0190,11.0,29.7,11111222
Shell,ioos:station:wmo:42902:2,2021-08-05T12:41:00Z,28.5991,-88.0190,11.0,29.7,11111222
Shell,ioos:station:wmo:42902:2,2021-08-05T12:51:00Z,28.5991,-88.0190,11.0,29.6,11111222
Shell,ioos:station:wmo:42902:2,2021-08-05T13:01:00Z,28.5991,-88.0190,11.0,29.5,11111222
Shell,ioos:station:wmo:42902:2,2021-08-05T13:11:00Z,28.5991,-88.0190,11.0,29.6,11111222
Shell,ioos:station:wmo:42902:2,2021-08-05T13:21:00Z,28.5991,-88.0190,11.0,29.5,11111222
Shell,ioos:station:wmo:42902:2,2021-08-05T13:31:00Z,28.5992,-88.0191,11.0,29.4,11111222
Shell,ioos:station:wmo:42902:2,2021-08-05T13:41:00Z,28.5991,-88.0190,11.0,29.4,11111222
Shell,ioos:station:wmo:42902:2,2021-08-05T13:51:00Z,28.5992,-88.0190,11.0,29.4,11111222
Shell,ioos:station:wmo:42902:2,2021-08-05T14:01:00Z,28.5992,-88.0190,11.0,29.4,11111222
Shell,ioos:station:wmo:42902:2,2021-08-05T14:11:00Z,28.5991,-88.0190,11.0,29.5,11111222
Shell,ioos:station:wmo:42902:2,2021-08-05T14:21:00Z,28.5991,-88.0190,11.0,29.5,11111222
Shell,ioos:station:wmo:42902:2,2021-08-05T14:31:00Z,28.5991,-88.0190,11.0,29.6,11111222
Shell,ioos:station:wmo:42902:2,2021-08-05T14:41:00Z,28.5991,-88.0190,11.0,29.6,11111222
Shell,ioos:station:wmo:42902:2,2021-08-05T14:51:00Z,28.5991,-88.0190,11.0,29.6,11111222
Shell,ioos:station:wmo:42902:2,2021-08-05T15:01:00Z,28.5992,-88.0190,11.0,29.6,11111222
Shell,ioos:station:wmo:42902:2,2021-08-05T15:11:00Z,28.5992,-88.0190,11.0,29.6,11111222
Shell,ioos:station:wmo:42902:2,2021-08-05T15:21:00Z,28.5994,-88.0189,11.0,29.4,11111222
Shell,ioos:station:wmo:42902:2,2021-08-05T15:31:00Z,28.5994,-88.0189,11.0,29.4,11111222
Shell,ioos:station:wmo:42902:2,2021-08-05T15:41:00Z,28.5994,-88.0189,11.0,29.4,11111222
Shell,ioos:station:wmo:42902:2,2021-08-05T15:51:00Z,28.5994,-88.0189,11.0,29.4,11111222
Shell,ioos:station:wmo:42902:2,2021-08-05T16:01:00Z,28.5994,-88.0189,11.0,29.4,11111222
Shell,ioos:station:wmo:42902:2,2021-08-05T16:11:00Z,28.5994,-88.0189,11.0,29.4,11111222
Shell,ioos:station:wmo:42902:2,2021-08-05T16:21:00Z,28.5994,-88.0189,11.0,29.3,11111222
Shell,ioos:station:wmo:42902:2,2021-08-05T16:31:00Z,28.5994,-88.0189,11.0,29.3,11111222
Shell,ioos:station:wmo:42902:2,2021-08-05T16:41:00Z,28.5994,-88.0189,11.0,29.3,11111222
Shell,ioos:station:wmo:42902:2,2021-08-05T16:51:00Z,28.5994,-88.0189,11.0,29.4,11111222
Shell,ioos:station:wmo:42902:2,2021-08-05T17:01:00Z,28.5994,-88.0189,11.0,29.3,11111222
Shell,ioos:station:wmo:42902:2,2021-08-05T17:11:00Z,28.5994,-88.0189,11.0,29.3,11111222
Shell,ioos:station:wmo:42902:2,2021-08-05T17:21:00Z,28.5994,-88.0189,11.0,29.3,11111222
Shell,ioos:station:wmo:42902:2,2021-08-05T17:31:00Z,28.5994,-88.0189,11.0,29.4,11111222
Shell,ioos:station:wmo:42902:2,2021-08-05T17:41:00Z,28.5994,-88.0189,11.0,29.4,11111222
Shell,ioos:station:wmo:42902:2,2021-08-05T17:51:00Z,28.5994,-88.0189,11.0,29.3,11111222
Shell,ioos:station:wmo:42902:2,2021-08-05T18:01:00Z,28.5994,-88.0189,11.0,29.4,11111222
Shell,ioos:station:wmo:42902:2,2021-08-05T18:11:00Z,28.5994,-88.0189,11.0,29.4,11111222
Shell,ioos:station:wmo:42902:2,2021-08-05T18:21:00Z,28.5994,-88.0189,11.0,29.4,11111222
Shell,ioos:station:wmo:42902:2,2021-08-05T18:31:00Z,28.5994,-88.0189,11.0,29.4,11111222
Shell,ioos:station:wmo:42902:2,2021-08-05T18:41:00Z,28.5994,-88.0189,11.0,29.4,11111222
Shell,ioos:station:wmo:42902:2,2021-08-05T18:51:00Z,28.5994,-88.0189,11.0,29.4,11111222
Shell,ioos:station:wmo:42902:2,2021-08-05T19:01:00Z,28.5994,-88.0189,11.0,29.4,11111222
Shell,ioos:station:wmo:42902:2,2021-08-05T19:11:00Z,28.5994,-88.0189,11.0,29.4,11111222
Shell,ioos:station:wmo:42902:2,2021-08-05T19:21:00Z,28.5994,-88.0189,11.0,29.4,11111222
Shell,ioos:station:wmo:42902:2,2021-08-05T19:31:00Z,28.5994,-88.0189,11.0,29.4,11111222
Shell,ioos:station:wmo:42902:2,2021-08-05T19:41:00Z,28.5994,-88.0189,11.0,29.4,11111222
Shell,ioos:station:wmo:42902:2,2021-08-05T19:51:00Z,28.5994,-88.0189,11.0,29.3,11111222
Shell,ioos:station:wmo:42902:2,2021-08-05T20:01:00Z,28.5994,-88.0189,11.0,29.4,11111222
Shell,ioos:station:wmo:42902:2,2021-08-05T20:11:00Z,28.5994,-88.0189,11.0,29.3,11111222
Shell,ioos:station:wmo:42902:2,2021-08-05T20:21:00Z,28.5994,-88.0189,11.0,29.3,11111222
Shell,ioos:station:wmo:42902:2,2021-08-05T20:31:00Z,28.5994,-88.0189,11.0,29.3,11111222
Shell,ioos:station:wmo:42902:2,2021-08-05T20:41:00Z,28.5994,-88.0189,11.0,29.3,11111222
Shell,ioos:station:wmo:42902:2,2021-08-05T20:51:00Z,28.5994,-88.0189,11.0,29.3,11111222
Shell,ioos:station:wmo:42902:2,2021-08-05T21:01:00Z,28.5994,-88.0189,11.0,29.4,11111222
Shell,ioos:station:wmo:42902:2,2021-08-05T21:11:00Z,28.5994,-88.0189,11.0,29.3,11111222
Shell,ioos:station:wmo:42902:2,2021-08-05T21:21:00Z,28.5994,-88.0189,11.0,29.3,11111222
Shell,ioos:station:wmo:42902:2,2021-08-05T21:31:00Z,28.5994,-88.0189,11.0,29.4,11111222
Shell,ioos:station:wmo:42902:2,2021-08-05T21:41:00Z,28.5994,-88.0189,11.0,29.3,11111222
Shell,ioos:station:wmo:42902:2,2021-08-05T21:51:00Z,28.5994,-88.0189,11.0,29.3,11111222
Shell,ioos:station:wmo:42902:2,2021-08-05T22:01:00Z,28.5994,-88.0189,11.0,29.4,11111222
Shell,ioos:station:wmo:42902:2,2021-08-05T22:11:00Z,28.5994,-88.0189,11.0,29.4,11111222
Shell,ioos:station:wmo:42902:2,2021-08-05T22:21:00Z,28.5994,-88.0189,11.0,29.4,11111222
Shell,ioos:station:wmo:42902:2,2021-08-05T22:31:00Z,28.5994,-88.0189,11.0,29.4,11111222
Shell,ioos:station:wmo:42902:2,2021-08-05T22:41:00Z,28.5994,-88.0189,11.0,29.4,11111222
Shell,ioos:station:wmo:42902:2,2021-08-05T22:51:00Z,28.5994,-88.0189,11.0,29.4,11111222
Shell,ioos:station:wmo:42902:2,2021-08-05T23:01:00Z,28.5994,-88.0189,11.0,29.4,11111222
Shell,ioos:station:wmo:42902:2,2021-08-05T23:11:00Z,28.5994,-88.0189,11.0,29.5,11111222
Shell,ioos:station:wmo:42902:2,2021-08-05T23:21:00Z,28.5994,-88.0189,11.0,29.5,11111222
Shell,ioos:station:wmo:42902:2,2021-08-05T23:31:00Z,28.5994,-88.0189,11.0,29.5,11111222
Shell,ioos:station:wmo:42902:2,2021-08-05T23:41:00Z,28.5994,-88.0189,11.0,29.5,11111222
Shell,ioos:station:wmo:42902:2,2021-08-05T23:51:00Z,28.5994,-88.0189,11.0,29.5,11111222
Shell,ioos:station:wmo:42902:2,2021-08-06T00:01:00Z,28.5994,-88.0189,11.0,29.5,11111222
Shell,ioos:station:wmo:42902:2,2021-08-06T00:11:00Z,28.5994,-88.0189,11.0,29.5,11111222
Shell,ioos:station:wmo:42902:2,2021-08-06T00:21:00Z,28.5994,-88.0189,11.0,29.5,11111222
Shell,ioos:station:wmo:42902:2,2021-08-06T00:31:00Z,28.5994,-88.0189,11.0,29.5,11111222
Shell,ioos:station:wmo:42902:2,2021-08-06T00:41:00Z,28.5994,-88.0189,11.0,29.5,11111222
Shell,ioos:station:wmo:42902:2,2021-08-06T00:51:00Z,28.5994,-88.0189,11.0,29.6,11111222
Shell,ioos:station:wmo:42902:2,2021-08-06T01:01:00Z,28.5994,-88.0189,11.0,29.7,11111222
Shell,ioos:station:wmo:42902:2,2021-08-06T01:11:00Z,28.5994,-88.0189,11.0,29.8,11111222
Shell,ioos:station:wmo:42902:2,2021-08-06T01:21:00Z,28.5994,-88.0189,11.0,29.8,11111222
Shell,ioos:station:wmo:42902:2,2021-08-06T01:31:00Z,28.5994,-88.0189,11.0,29.8,11111222
Shell,ioos:station:wmo:42902:2,2021-08-06T01:41:00Z,28.5994,-88.0189,11.0,29.7,11111222
Shell,ioos:station:wmo:42902:2,2021-08-06T01:51:00Z,28.5994,-88.0189,11.0,29.7,11111222
Shell,ioos:station:wmo:42902:2,2021-08-06T02:01:00Z,28.5994,-88.0189,11.0,29.7,11111222
Shell,ioos:station:wmo:42902:2,2021-08-06T02:11:00Z,28.5994,-88.0190,11.0,29.7,11111222
Shell,ioos:station:wmo:42902:2,2021-08-06T02:21:00Z,28.5993,-88.0190,11.0,29.7,11111222
Shell,ioos:station:wmo:42902:2,2021-08-06T02:31:00Z,28.5993,-88.0190,11.0,29.7,11111222
Shell,ioos:station:wmo:42902:2,2021-08-06T02:41:00Z,28.5993,-88.0190,11.0,29.7,11111222
Shell,ioos:station:wmo:42902:2,2021-08-06T02:51:00Z,28.5993,-88.0190,11.0,29.7,11111222
Shell,ioos:station:wmo:42902:2,2021-08-06T03:01:00Z,28.5994,-88.0190,11.0,29.7,11111222
Shell,ioos:station:wmo:42902:2,2021-08-06T03:11:00Z,28.5993,-88.0190,11.0,29.8,11111222
Shell,ioos:station:wmo:42902:2,2021-08-06T03:21:00Z,28.5994,-88.0190,11.0,29.8,11111222
Shell,ioos:station:wmo:42902:2,2021-08-06T03:31:00Z,28.5993,-88.0190,11.0,29.8,11111222
Shell,ioos:station:wmo:42902:2,2021-08-06T03:41:00Z,28.5993,-88.0190,11.0,29.8,11111222
Shell,ioos:station:wmo:42902:2,2021-08-06T03:51:00Z,28.5993,-88.0190,11.0,29.7,11111222
Shell,ioos:station:wmo:42902:2,2021-08-06T04:01:00Z,28.5993,-88.0190,11.0,29.6,11111222
Shell,ioos:station:wmo:42902:2,2021-08-06T04:11:00Z,28.5993,-88.0190,11.0,29.6,11111222
Shell,ioos:station:wmo:42902:2,2021-08-06T04:21:00Z,28.5993,-88.0190,11.0,29.6,11111222
Shell,ioos:station:wmo:42902:2,2021-08-06T04:31:00Z,28.5993,-88.0190,11.0,29.6,11111222
Shell,ioos:station:wmo:42902:2,2021-08-06T04:41:00Z,28.5993,-88.0190,11.0,29.6,11111222
Shell,ioos:station:wmo:42902:2,2021-08-06T04:51:00Z,28.5993,-88.0189,11.0,29.6,11111222
Shell,ioos:station:wmo:42902:2,2021-08-06T05:01:00Z,28.5993,-88.0189,11.0,29.6,11111222
Shell,ioos:station:wmo:42902:2,2021-08-06T05:11:00Z,28.5993,-88.0189,11.0,29.6,11111222
Shell,ioos:station:wmo:42902:2,2021-08-06T05:21:00Z,28.5993,-88.0189,11.0,29.7,11111222
Shell,ioos:station:wmo:42902:2,2021-08-06T05:31:00Z,28.5993,-88.0189,11.0,29.7,11111222
Shell,ioos:station:wmo:42902:2,2021-08-06T05:41:00Z,28.5993,-88.0189,11.0,29.8,11111222
Shell,ioos:station:wmo:42902:2,2021-08-06T05:51:00Z,28.5993,-88.0189,11.0,29.8,11111222
Shell,ioos:station:wmo:42902:2,2021-08-06T06:01:00Z,28.5993,-88.0189,11.0,29.8,11111222
Shell,ioos:station:wmo:42902:2,2021-08-06T06:11:00Z,28.5993,-88.0189,11.0,29.8,11111222
Shell,ioos:station:wmo:42902:2,2021-08-06T06:21:00Z,28.5993,-88.0189,11.0,29.8,11111222
Shell,ioos:station:wmo:42902:2,2021-08-06T06:31:00Z,28.5993,-88.0189,11.0,29.8,11111222
Shell,ioos:station:wmo:42902:2,2021-08-06T06:41:00Z,28.5994,-88.0189,11.0,29.9,11111222
Shell,ioos:station:wmo:42902:2,2021-08-06T06:51:00Z,28.5993,-88.0189,11.0,29.9,11111222
Shell,ioos:station:wmo:42902:2,2021-08-06T07:01:00Z,28.5993,-88.0189,11.0,29.9,11111222
Shell,ioos:station:wmo:42902:2,2021-08-06T07:11:00Z,28.5994,-88.0189,11.0,29.9,11111222
Shell,ioos:station:wmo:42902:2,2021-08-06T07:21:00Z,28.5994,-88.0189,11.0,29.8,11111222
Shell,ioos:station:wmo:42902:2,2021-08-06T07:31:00Z,28.5994,-88.0189,11.0,29.8,11111222
Shell,ioos:station:wmo:42902:2,2021-08-06T07:41:00Z,28.5994,-88.0189,11.0,29.8,11111222
Shell,ioos:station:wmo:42902:2,2021-08-06T07:51:00Z,28.5994,-88.0189,11.0,29.9,11111222
Shell,ioos:station:wmo:42902:2,2021-08-06T08:01:00Z,28.5994,-88.0189,11.0,29.8,11111222
Shell,ioos:station:wmo:42902:2,2021-08-06T08:11:00Z,28.5993,-88.0189,11.0,29.8,11111222
Shell,ioos:station:wmo:42902:2,2021-08-06T08:21:00Z,28.5993,-88.0189,11.0,29.9,11111222
Shell,ioos:station:wmo:42902:2,2021-08-06T08:31:00Z,28.5993,-88.0189,11.0,29.9,11111222
Shell,ioos:station:wmo:42902:2,2021-08-06T08:41:00Z,28.5994,-88.0189,11.0,29.9,11111222
Shell,ioos:station:wmo:42902:2,2021-08-06T08:51:00Z,28.5993,-88.0189,11.0,29.9,11111222
Shell,ioos:station:wmo:42902:2,2021-08-06T09:01:00Z,28.5993,-88.0189,11.0,29.9,11111222
Shell,ioos:station:wmo:42902:2,2021-08-06T09:11:00Z,28.5993,-88.0189,11.0,29.9,11111222
Shell,ioos:station:wmo:42902:2,2021-08-06T09:21:00Z,28.5993,-88.0189,11.0,30.0,11111222
Shell,ioos:station:wmo:42902:2,2021-08-06T09:31:00Z,28.5988,-88.0192,11.0,29.8,11111222
Shell,ioos:station:wmo:42902:2,2021-08-06T09:41:00Z,28.5984,-88.0196,11.0,29.7,11111222
Shell,ioos:station:wmo:42902:2,2021-08-06T09:51:00Z,28.5979,-88.0199,11.0,29.7,11111222
Shell,ioos:station:wmo:42902:2,2021-08-06T10:01:00Z,28.5975,-88.0201,11.0,29.8,11111222
Shell,ioos:station:wmo:42902:2,2021-08-06T10:11:00Z,28.5975,-88.0201,11.0,29.9,11111222
Shell,ioos:station:wmo:42902:2,2021-08-06T10:21:00Z,28.5975,-88.0201,11.0,30.0,11111222
Shell,ioos:station:wmo:42902:2,2021-08-06T10:31:00Z,28.5975,-88.0201,11.0,30.0,11111222
Shell,ioos:station:wmo:42902:2,2021-08-06T10:41:00Z,28.5975,-88.0201,11.0,30.1,11111222
Shell,ioos:station:wmo:42902:2,2021-08-06T10:51:00Z,28.5975,-88.0201,11.0,30.2,11111222
Shell,ioos:station:wmo:42902:2,2021-08-06T11:01:00Z,28.5975,-88.0201,11.0,30.2,11111222
Shell,ioos:station:wmo:42902:2,2021-08-06T11:11:00Z,28.5975,-88.0201,11.0,30.2,11111222
Shell,ioos:station:wmo:42902:2,2021-08-06T11:21:00Z,28.5975,-88.0201,11.0,30.2,11111222
Shell,ioos:station:wmo:42902:2,2021-08-06T11:31:00Z,28.5975,-88.0201,11.0,30.2,11111222
Shell,ioos:station:wmo:42902:2,2021-08-06T11:41:00Z,28.5975,-88.0201,11.0,30.2,11111222
Shell,ioos:station:wmo:42902:2,2021-08-06T11:51:00Z,28.5975,-88.0201,11.0,30.2,11111222